{"data":{"norad_id":65232,"epoch":"2026-09-21T21:03:40.375296Z","epoch_age_seconds":43157,"freshness":"FRESH","line1":"1 65232U 25178E   26264.87755064  .00000019  00000+0  93702-5 0  9998","line2":"2 65232  86.5036 340.8896 0001637 107.6637 252.4676 13.24413094 53116","mean_motion":13.24413094,"eccentricity":0.0001637,"inclination_deg":86.5036,"raan_deg":340.8896,"arg_perigee_deg":107.6637,"mean_anomaly_deg":252.4676,"bstar":9.3702e-6,"rev_number":5311,"period_min":108.72740586178,"perigee_km":1166.6751452783,"apogee_km":1169.1457212079,"semimajor_km":7546.0474332431,"source":"CELESTRAK","updated_at":"2026-09-22T09:00:30.214867Z"}}